Regional Weather Roundup
Issued by NWS Bismarck, ND

Home | Current Version | Previous Version | Text Only | Print | Product List | Glossary On
Versions: 1 2 3 4 5 6 7 8 9 10 11 12 13 14 15 16 17 18 19 20 21 22 23 24 25 26 27 28 29 30 31 32 33 34 35 36 37 38 39 40 41 42 43 44 45 46 47 48 49 50
000
ASUS43 KBIS 250302
RWRBIS

NWR BROADCAST TEXT
NATIONAL WEATHER SERVICE BISMARCK ND
1000 PM CDT SUN JUL 24 2016

NOTE: "FAIR" INDICATES FEW OR NO CLOUDS BELOW 12,000 FEET WITH NO
SIGNIFICANT WEATHER AND/OR OBSTRUCTIONS TO VISIBILITY.


CITY           SKY/WX    TMP DP  RH WIND       PRES   REMARKS
WILLISTON      CLEAR     73  58  59 CALM      29.98R
MINOT          CLEAR     70  61  73 CALM      29.99R
MINOT AFB      CLEAR     69  58  69 SE2       29.98R
BISMARCK       CLEAR     67  62  84 SE5       30.03R
DICKINSON      CLEAR     68  53  58 SE10      30.02R
GARRISON         N/A     71  59  65 CALM      30.00S
HETTINGER ARPT CLEAR     74  51  44 E12       30.06S
JAMESTOWN      CLEAR     69  59  70 W3        30.01R
CARRINGTON     HAZE      64  61  88 W6        30.03R VSB 1
OAKES            N/A    N/A N/A N/A MISG        N/A
STANLEY        FAIR      68  63  83 E5        30.04R
$$

CITY           SKY/WX    TMP DP  RH WIND       PRES   REMARKS
GRAND FORKS    CLEAR     67  61  81 W6        29.94R
GRAND FORKS AF CLEAR     68  61  78 W6        29.95R
DEVILS LAKE    CLEAR     66  59  78 W8        29.99R
FARGO          CLEAR     70  61  73 W7        29.96R
GRAFTON        FAIR      70  66  88 W6        29.94R
GWINNER        FAIR      68  61  77 W7        30.01R
LANGDON        FAIR      64  64 100 W7        29.97R
ROLLA            N/A     63  57  82 W6        30.00R
$$

CITY           SKY/WX    TMP DP  RH WIND       PRES   REMARKS
ABERDEEN       CLEAR     68  60  75 S3        30.04R
MOBRIDGE       CLEAR     74  56  53 E7        30.03R
RAPID CITY     CLEAR     71  51  49 SE5       30.09R
GLASGOW        CLEAR     73  53  49 VRB6      29.96S
SIDNEY         CLEAR     74  55  51 CALM      29.97R
WOLF POINT     CLEAR     75  57  53 N5        29.96R
GLENDIVE       CLEAR     76  53  44 N5        29.99R
MILES CITY     CLEAR     83  43  24 NE9       29.97R
BAKER          CLEAR     73  53  49 E9        30.03S
$$

CITY           SKY/WX    TMP DP  RH WIND       PRES   REMARKS
BILLINGS       CLEAR     84  37  18 N3        30.01S
GREAT FALLS    CLEAR     75  38  26 E7        29.99S
$$




USA.gov is the U.S. government's official web portal to all federal, state and local government web resources and services.